Princeton, MN

12:29 AM CDT on April 20, 2018 (GMT -0500)
Princeton Municipal

Weather History for KPNM - July, 2013

Change the Weather History Date:

Sunday, July 7, 2013

  Actual Average Record
Temperature  
Mean Temperature 78 °F -  
Max Temperature 89 °F 78 °F 93 °F (2007)
Min Temperature 68 °F 56 °F 44 °F (1997)
Cooling Degree Days 14    
Growing Degree Days 28 (Base 50)    
Moisture  
Dew Point 67 °F    
Average Humidity 71    
Maximum Humidity 94    
Minimum Humidity 52    
Precipitation  
Precipitation 0.00 in - - ()
Sea Level Pressure  
Sea Level Pressure 29.85 in    
Wind  
Wind Speed 5 mph (South)    
Max Wind Speed 15 mph    
Max Gust Speed 26 mph    
Visibility 10 miles    
Events      
Averages and records for this station are not official NWS values.
T = Trace of Precipitation, MM = Missing Value Source: NWS Daily Summary

Daily Weather History Graph

Daily Weather History Graph

Search for Another Location

Airport or City:

Astronomy

Jul. 07, 2013 Rise Set
Actual Time 5:33 AM CDT 9:04 PM CDT
Civil Twilight 4:56 AM CDT 9:42 PM CDT
Nautical Twilight 4:06 AM CDT 10:31 PM CDT
Astronomical Twilight 3:02 AM CDT 11:35 PM CDT
Moon 5:13 AM CDT (7/7) 8:25 PM CDT (7/7)
Length of Visible Light 16h 45m
Length of Day
15h 31m
Waning Crescent, 0% of the Moon is Illuminated
Jul 7
Waning Crescent
Jul 8
New
Jul 15
First Quarter
Jul 22
Full
Jul 29
Last Quarter

Hourly Weather History & Observations

Time (CDT) Temp. Heat Index Dew Point Humidity Pressure Visibility Wind Dir Wind Speed Gust Speed Precip Events Conditions
12:06 AM 75.2 °F - 66.2 °F 73% 29.82 in 10.0 mi SSE 5.8 mph - N/A   Clear
12:21 AM 75.2 °F - 64.4 °F 69% 29.82 in 10.0 mi SSE 6.9 mph - N/A   Clear
12:48 AM 78.8 °F - 64.4 °F 61% 29.82 in 10.0 mi South 8.1 mph - N/A   Clear
1:01 AM 78.8 °F - 64.4 °F 61% 29.82 in 10.0 mi South 6.9 mph - N/A   Clear
1:37 AM 77.0 °F - 64.4 °F 65% 29.81 in 10.0 mi South 8.1 mph - N/A   Clear
1:41 AM 77.0 °F - 64.4 °F 65% 29.81 in 10.0 mi South 6.9 mph - N/A   Clear
2:11 AM 77.0 °F - 64.4 °F 65% 29.82 in 10.0 mi South 6.9 mph - N/A   Clear
2:26 AM 75.2 °F - 64.4 °F 69% 29.82 in 10.0 mi South 5.8 mph - N/A   Clear
2:51 AM 75.2 °F - 64.4 °F 69% 29.82 in 10.0 mi South 4.6 mph - N/A   Clear
3:01 AM 75.2 °F - 64.4 °F 69% 29.82 in 10.0 mi South 4.6 mph - N/A   Clear
3:21 AM 73.4 °F - 64.4 °F 73% 29.82 in 10.0 mi South 4.6 mph - N/A   Clear
3:41 AM 73.4 °F - 64.4 °F 73% 29.82 in 10.0 mi SSE 3.5 mph - N/A   Clear
4:01 AM 73.4 °F - 64.4 °F 73% 29.82 in 10.0 mi SSE 3.5 mph - N/A   Clear
4:21 AM 73.4 °F - 64.4 °F 73% 29.83 in 10.0 mi South 2.3 mph - N/A   Clear
4:41 AM 71.6 °F - 64.4 °F 78% 29.83 in 10.0 mi South 3.5 mph - N/A   Clear
5:01 AM 71.6 °F - 64.4 °F 78% 29.83 in 10.0 mi SSE 2.3 mph - N/A   Clear
5:21 AM 71.6 °F - 64.4 °F 78% 29.83 in 10.0 mi South 3.5 mph - N/A   Clear
5:41 AM 71.6 °F - 64.4 °F 78% 29.83 in 10.0 mi South 1.2 mph - N/A   Clear
6:01 AM 71.6 °F - 64.4 °F 78% 29.83 in 10.0 mi SSE 1.2 mph - N/A   Clear
6:21 AM 71.6 °F - 64.4 °F 78% 29.83 in 10.0 mi South 3.5 mph - N/A   Clear
6:41 AM 73.4 °F - 66.2 °F 78% 29.83 in 10.0 mi South 2.3 mph - N/A   Clear
7:01 AM 73.4 °F - 66.2 °F 78% 29.84 in 10.0 mi South 2.3 mph - N/A   Clear
7:21 AM 75.2 °F - 66.2 °F 73% 29.84 in 10.0 mi SSW 3.5 mph - N/A   Clear
7:41 AM 75.2 °F - 66.2 °F 73% 29.84 in 10.0 mi SSW 5.8 mph - N/A   Clear
8:01 AM 77.0 °F - 66.2 °F 69% 29.85 in 10.0 mi SSW 5.8 mph - N/A   Clear
8:21 AM 78.8 °F - 68.0 °F 69% 29.85 in 10.0 mi SW 4.6 mph - N/A   Clear
8:41 AM 78.8 °F - 68.0 °F 69% 29.84 in 10.0 mi SW 3.5 mph - N/A   Clear
9:01 AM 78.8 °F - 68.0 °F 69% 29.85 in 10.0 mi SW 3.5 mph - N/A   Clear
9:21 AM 80.6 °F 83.2 °F 68.0 °F 65% 29.85 in 10.0 mi SW 3.5 mph - N/A   Clear
9:41 AM 80.6 °F 83.2 °F 68.0 °F 65% 29.85 in 10.0 mi WSW 4.6 mph - N/A   Clear
10:01 AM 80.6 °F 83.2 °F 68.0 °F 65% 29.85 in 10.0 mi WSW 3.5 mph - N/A   Clear
10:21 AM 82.4 °F 86.3 °F 69.8 °F 66% 29.85 in 10.0 mi WSW 3.5 mph - N/A   Clear
10:41 AM 82.4 °F 86.3 °F 69.8 °F 66% 29.85 in 10.0 mi West 1.2 mph - N/A   Clear
11:01 AM 82.4 °F 86.3 °F 69.8 °F 66% 29.84 in 10.0 mi South 2.3 mph - N/A   Clear
11:21 AM 84.2 °F 88.4 °F 69.8 °F 62% 29.85 in 10.0 mi NE 1.2 mph - N/A   Clear
11:41 AM 84.2 °F 88.4 °F 69.8 °F 62% 29.85 in 10.0 mi SE 2.3 mph - N/A   Clear
12:01 PM 86.0 °F 90.4 °F 69.8 °F 58% 29.85 in 10.0 mi SE 3.5 mph - N/A   Clear
12:21 PM 87.8 °F 92.6 °F 69.8 °F 55% 29.85 in 10.0 mi SSE 4.6 mph - N/A   Clear
12:41 PM 89.6 °F 96.2 °F 71.6 °F 55% 29.85 in 10.0 mi SSE 5.8 mph - N/A   Clear
1:01 PM 87.8 °F 92.6 °F 69.8 °F 55% 29.85 in 7.0 mi ENE 1.2 mph - N/A   Clear
1:21 PM 86.0 °F 90.4 °F 69.8 °F 58% 29.85 in 10.0 mi East 1.2 mph - N/A   Scattered Clouds
1:41 PM 87.8 °F 93.8 °F 71.6 °F 58% 29.86 in 10.0 mi SSW 2.3 mph - N/A   Scattered Clouds
2:01 PM 86.0 °F 90.4 °F 69.8 °F 58% 29.86 in 10.0 mi West 1.2 mph - N/A   Scattered Clouds
2:21 PM 87.8 °F 92.6 °F 69.8 °F 55% 29.85 in 10.0 mi South 3.5 mph - N/A   Scattered Clouds
2:46 PM 87.8 °F 92.6 °F 69.8 °F 55% 29.85 in 10.0 mi South 3.5 mph - N/A   Scattered Clouds
3:03 PM 87.8 °F 92.6 °F 69.8 °F 55% 29.85 in 10.0 mi SSE 3.5 mph - N/A   Mostly Cloudy
3:21 PM 87.8 °F 92.6 °F 69.8 °F 55% 29.85 in 10.0 mi ESE 3.5 mph - N/A   Mostly Cloudy
3:48 PM 89.6 °F 94.7 °F 69.8 °F 52% 29.84 in 10.0 mi South 4.6 mph - N/A   Scattered Clouds
4:05 PM 87.8 °F 92.6 °F 69.8 °F 55% 29.84 in 10.0 mi SSW 2.3 mph - N/A   Clear
4:29 PM 86.0 °F 90.4 °F 69.8 °F 58% 29.84 in 10.0 mi South 2.3 mph - N/A   Clear
4:51 PM 86.0 °F 91.8 °F 71.6 °F 62% 29.84 in 10.0 mi South 2.3 mph - N/A   Clear
5:12 PM 84.2 °F 88.4 °F 69.8 °F 62% 29.85 in 10.0 mi SSW 8.1 mph 19.6 mph N/A   Scattered Clouds
5:39 PM 78.8 °F - 66.2 °F 65% 29.88 in 10.0 mi North 15.0 mph 26.5 mph N/A   Overcast
5:45 PM 75.2 °F - 66.2 °F 73% 29.88 in 10.0 mi NNW 13.8 mph 26.5 mph N/A   Overcast
6:06 PM 71.6 °F - 68.0 °F 88% 29.88 in 10.0 mi NE 6.9 mph - N/A   Overcast
6:32 PM 71.6 °F - 66.2 °F 83% 29.87 in 10.0 mi NE 6.9 mph - N/A   Overcast
6:51 PM 71.6 °F - 66.2 °F 83% 29.90 in 10.0 mi Calm Calm - N/A   Overcast
7:01 PM 71.6 °F - 66.2 °F 83% 29.88 in 10.0 mi North 2.3 mph - N/A   Mostly Cloudy
7:32 PM 71.6 °F - 66.2 °F 83% 29.90 in 10.0 mi North 3.5 mph - N/A   Scattered Clouds
7:51 PM 71.6 °F - 66.2 °F 83% 29.89 in 10.0 mi NW 4.6 mph - N/A   Clear
8:13 PM 71.6 °F - 66.2 °F 83% 29.88 in 10.0 mi Calm Calm - N/A   Clear
8:28 PM 71.6 °F - 66.2 °F 83% 29.87 in 10.0 mi ESE 2.3 mph - N/A   Clear
8:41 PM 71.6 °F - 66.2 °F 83% 29.87 in 10.0 mi Calm Calm - N/A   Clear
9:02 PM 69.8 °F - 66.2 °F 88% 29.90 in 10.0 mi NNE 4.6 mph - N/A   Clear
9:21 PM 69.8 °F - 66.2 °F 88% 29.90 in 10.0 mi ENE 3.5 mph - N/A   Clear
9:41 PM 69.8 °F - 66.2 °F 88% 29.90 in 10.0 mi Calm Calm - N/A   Clear
10:01 PM 68.0 °F - 64.4 °F 88% 29.90 in 7.0 mi NW 5.8 mph - N/A   Clear
10:21 PM 68.0 °F - 64.4 °F 88% 29.89 in 5.0 mi NW 2.3 mph - N/A   Clear
10:41 PM 68.0 °F - 66.2 °F 94% 29.88 in 5.0 mi WNW 4.6 mph - N/A   Clear
11:01 PM 68.0 °F - 66.2 °F 94% 29.89 in 7.0 mi NE 2.3 mph - N/A   Clear
11:21 PM 68.0 °F - 66.2 °F 94% 29.91 in 7.0 mi North 6.9 mph - N/A   Clear
11:41 PM 68.0 °F - 66.2 °F 94% 29.91 in 7.0 mi North 5.8 mph - N/A   Clear